Location: Navajo
(48.7922°N, 105.0603°W)
Time: 02:53:47
(UTC+00:00)

CUBEBUG 2 - Pass Details

Date: 09 July 2022
Orbit: 584 x 693 km, 97.7° (Epoch: 09 August)

Event Time Altitude Azimuth Distance (km) Brightness Sun altitude
Rises 08:35:43 0° 33° (NNE) 2,871 ? -16.1°
Reaches altitude 10° 08:39:28 10° 68° (ENE) 1,985 ? -15.8°
Maximum altitude 08:40:54 11° 87° (E) 1,899 ? -15.7°
Drops below altitude 10° 08:42:20 10° 107° (ESE) 2,001 ? -15.7°
Enters shadow 08:45:57 - 140° (SE) 2,874 ? -15.4°
